Location: Crescent
(42.8242°N, 73.7329°W)
Time: 21:20:25
(UTC+00:00)

SR - Pass Details

Date: 23 February 2026
Orbit: 573 x 848 km, 66.7° (Epoch: 6 March)

Event Time Altitude Azimuth Distance (km) Brightness Sun altitude
Rises 18:34:58 0° 307° (NW) 3,175 ? 33.9°
Reaches altitude 10° 18:38:52 10° 277° (W) 2,313 ? 33.6°
Maximum altitude 18:40:48 12° 256° (WSW) 2,202 ? 33.5°
Drops below altitude 10° 18:42:47 10° 234° (SW) 2,366 ? 33.3°
Sets 18:46:55 0° 205° (SSW) 3,341 ? 32.9°
